SCP
-0 0 0 -0 -0 0 0 0 0 0 0 0 0 0 0 0 0 0 0 0 0 0 0 0 0 0 0 0 0 0 0 0 0 0 0 0 0 0 0 0 0 0 0
0 0 0 -0 0 0 0 0 0 0 0 0 0 0 0 0 0 0 0 0 0 0 0 0 0 0 0 0 0 0 0 0 0 0 0 0 -0 0 0 0 0 0 0
0 0 0 0 0 0 0 0 0 0 0 0 0 0 0 0 0 0 0 0 0 0 0 0 0 0 0 0 0 0 0 0 0 0 0 -0 -0 0 0 0 0 0 0
0 0 0 0 0 0 0 0 0 0 0 0 0 0 0 0 0 0 0 0 0 0 0 0 0 0 0 0 0 0 0 0 0 0 0 -0 -0 0 0 0 0 0 0
0 0 0 0 0 0 0 0 0 0 0 0 0 0 0 0 0 0 0 0 0 0 0 0 0 0 0 0 0 0 0 0 0 0 0 -0 -0 0 0 0 0 0 0
0 0 0 0 -0 -0 -0 0 0 0 0 0 0 0 0 0 0 0 0 0 0 0 0 0 0 0 0 0 0 0 0 0 0 0 0 0 -0 0 0 0 0 0 0
0 0 0 0 -0 -0 -0 0 0 0 0 0 0 0 0 0 0 0 0 0 0 0 0 0 0 0 0 0 0 0 0 0 0 0 0 0 -0 0 0 0 0 0 0
0 0 0 0 0 0 0 0 0 0 0 0 0 0 0 0 0 0 0 0 0 0 0 0 0 0 0 0 0 0 0 0 0 0 0 0 0 0 0 0 0 0 0
0 0 0 0 0 0 0 0 0 0 0 0 0 0 0 0 0 0 0 0 0 0 0 0 0 0 0 0 0 0 0 0 0 0 0 0 0 0 0 0 0 0 0
0 0 0 0 0 0 0 0 0 0 0 0 0 0 0 0 0 0 0 0 0 0 0 0 0 0 0 0 0 0 0 0 0 0 0 0 0 0 0 0 0 0 0
0 0 0 0 0 0 0 0 0 0 -0 0 0 0 0 0 0 0 0 0 0 0 0 0 0 0 0 0 0 0 0 0 0 0 0 0 0 0 0 0 0 0 0
0 0 0 0 0 0 0 0 -0 -0 -0 0 0 0 0 0 0 0 0 0 0 0 0 0 0 0 0 0 0 0 0 0 0 0 0 0 0 0 0 0 0 0 0
0 0 0 0 0 0 0 -0 -0 -0 -0 0 0 0 0 0 0 0 0 0 0 0 0 0 0 0 0 0 0 0 0 0 0 0 0 0 0 0 0 0 0 0 0
0 0 0 0 0 0 0 -0 -0 -0 0 0 0 0 0 0 0 0 0 0 0 0 0 0 0 0 0 0 0 0 0 0 0 0 0 0 0 0 0 0 0 0 0
0 0 0 0 0 0 0 0 0 0 0 0 0 0 0 0 0 0 0 0 0 0 0 0 0 0 0 0 0 0 0 0 0 0 0 0 0 0 0 0 0 0 0
0 0 0 0 0 0 0 0 0 0 0 0 0 0 0 0 0 0 0 0 0 0 0 0 0 0 0 0 0 0 0 0 0 0 0 0 0 0 0 0 0 0 0
0 0 0 0 0 0 0 0 0 0 0 0 0 0 0 0 0 0 0 0 0 0 0 0 0 0 0 0 0 0 0 0 0 0 0 0 0 0 0 0 0 0 0
0 0 0 0 0 0 0 0 0 0 0 0 0 0 0 0 0 0 0 0 0 0 0 0 0 0 0 0 0 0 0 0 0 0 0 -0 -0 0 0 0 0 0 0
0 0 0 0 0 0 0 0 0 0 0 0 0 0 0 0 0 0 0 0 0 0 0 0 0 0 0 0 0 0 0 0 0 0 0 -0 0 0 0 0 0 0 0
0 0 0 0 0 0 0 0 0 0 0 0 0 0 0 0 0 0 0 0 0 0 0 0 0 0 0 0 0 0 0 0 0 0 0 0 0 0 0 0 0 0 0
0 0 0 0 0 0 0 0 0 0 0 0 0 0 0 0 0 0 0 0 0 0 0 0 0 0 0 0 0 0 0 0 0 0 0 0 0 0 0 0 0 0 0
0 0 0 0 0 0 0 0 0 0 0 0 0 0 0 0 0 0 0 0 0 0 0 0 0 0 0 0 0 0 0 0 0 0 0 0 0 0 0 0 0 0 0
0 0 0 0 0 0 0 0 0 0 0 0 0 0 0 0 0 0 0 0 0 0 0 0 0 0 0 0 0 0 0 0 0 0 0 0 0 0 0 0 0 0 0
0 0 0 0 0 0 0 0 0 0 0 0 0 0 0 0 0 0 0 0 0 0 0 0 0 0 0 0 0 0 0 0 0 0 0 0 0 0 0 0 0 0 0
0 0 0 0 0 0 0 0 0 0 0 0 0 0 0 0 0 0 0 0 0 0 0 0 0 0 0 0 0 0 0 0 0 0 0 0 0 0 0 0 0 0 0
0 0 0 0 0 0 0 0 0 0 0 0 0 0 0 0 0 0 0 0 0 0 0 0 0 0 0 0 0 0 0 0 0 0 0 0 0 0 0 0 0 0 0
Wind_Speed
3 4 4 4 5 5 5 7 7 7 7 7 8 7 8 8 8 8 8 8 9 9 8 9 10 8 7 6 6 6 7 6 10 9 6 6 6 6 6 5 5 5 5
4 4 4 4 4 5 6 7 7 8 7 8 8 8 8 8 8 8 9 9 9 10 9 9 10 8 9 7 6 7 7 7 8 11 8 5 6 5 5 4 4 4 3
3 4 4 5 5 6 7 7 7 7 8 7 7 8 8 8 8 9 9 10 10 10 10 10 10 9 9 8 8 8 7 7 6 7 8 5 4 3 3 2 2 2 2
3 3 4 5 6 6 7 7 7 7 7 8 8 8 8 9 9 9 9 10 10 10 10 10 10 10 10 9 8 8 7 7 6 7 7 5 4 2 1 1 2 1 1
3 4 5 6 6 6 6 6 6 6 7 7 8 8 8 7 8 9 9 10 10 10 9 9 9 11 13 10 8 7 7 6 5 6 6 5 3 2 2 1 1 1 2
4 5 6 6 6 6 6 6 6 7 7 7 7 8 8 8 12 15 12 9 9 9 9 9 9 10 12 14 15 14 11 9 7 6 5 5 5 3 2 1 1 0 1
4 5 6 6 6 6 7 6 7 7 7 8 8 8 9 10 16 16 16 10 9 9 9 8 7 7 9 8 10 13 12 14 13 8 7 7 5 4 3 2 2 0 1
5 6 6 6 7 7 6 7 7 6 7 7 8 8 9 11 16 16 15 9 8 8 8 8 8 8 8 8 6 7 7 6 7 6 6 6 5 4 4 3 3 2 2
6 6 6 6 7 7 7 7 7 6 7 7 7 8 9 10 14 15 13 6 6 7 6 6 7 7 10 10 6 6 4 3 2 3 3 4 4 4 4 3 3 3 1
6 7 6 6 6 7 7 7 6 6 7 8 8 8 8 9 13 14 12 5 5 5 4 5 8 9 10 10 6 5 4 3 1 1 1 1 2 2 2 3 4 4 2
7 7 6 6 6 6 6 6 6 7 7 7 9 8 7 9 11 12 12 5 4 4 4 3 4 8 8 8 6 4 5 3 2 2 1 1 1 1 1 1 1 2 2
6 7 6 6 6 6 6 7 6 6 7 8 8 8 6 6 8 9 11 9 7 4 3 3 2 5 5 4 3 3 3 2 2 2 2 1 1 1 1 2 3 3 2
6 7 7 7 6 6 6 7 6 5 5 6 6 7 6 5 5 9 9 9 8 4 2 3 4 4 2 0 2 2 2 2 3 3 2 1 2 2 2 3 4 5 5
7 7 7 6 7 6 5 5 5 5 5 6 6 6 6 5 4 4 4 4 5 4 2 2 3 2 1 1 1 2 2 2 3 3 3 2 2 2 2 2 2 3 4
7 7 7 6 6 6 6 5 6 6 6 7 6 6 6 6 6 8 6 3 2 2 2 1 1 2 2 2 2 2 2 2 2 3 3 3 3 3 2 2 2 3 3
6 6 6 5 5 5 5 6 8 9 12 12 11 10 7 8 10 9 8 7 6 4 2 1 1 1 1 1 2 2 2 2 2 3 3 3 3 3 3 2 3 4 4
6 6 5 5 5 5 5 6 7 9 11 11 11 12 11 10 9 8 6 6 4 3 1 1 1 1 1 1 1 2 2 2 3 3 3 3 3 3 3 3 3 4 4
6 7 7 5 5 5 5 5 5 6 7 7 8 11 11 10 8 7 6 4 2 2 1 1 1 1 1 1 1 2 2 2 3 3 3 3 3 3 3 4 3 4 4
5 5 5 5 4 4 4 4 5 6 6 6 6 7 9 9 7 6 5 2 1 1 1 1 1 1 1 1 1 2 2 2 3 3 3 3 3 4 4 4 4 6 4
5 8 8 5 4 4 4 4 4 5 5 5 5 5 6 5 4 4 3 2 1 1 1 1 1 1 1 1 2 2 2 2 3 3 3 3 3 4 4 5 4 4 4
4 6 9 6 4 4 4 4 4 4 4 5 4 5 7 4 3 3 3 3 2 1 1 1 1 1 1 2 2 2 2 2 2 3 3 3 4 4 4 4 5 5 5
4 4 4 4 4 4 4 4 4 4 5 5 4 5 8 4 3 3 3 3 2 2 1 1 1 1 1 1 2 2 2 2 3 3 3 3 4 4 4 4 5 6 6
4 4 4 3 3 5 5 4 4 4 4 4 4 4 3 3 3 3 3 3 2 2 1 1 1 1 1 1 1 1 2 2 2 3 4 4 4 4 4 5 7 7 6
3 3 3 3 3 3 4 4 4 4 4 4 4 3 3 3 3 3 3 3 3 2 2 1 1 2 2 2 1 1 1 2 3 3 4 5 5 4 5 5 6 6 6
3 3 3 3 3 3 4 4 4 4 4 4 3 3 3 2 2 2 2 2 3 2 2 2 1 2 2 2 2 2 4 5 5 5 4 4 5 5 6 6 6 6 6
3 3 3 3 3 3 3 3 4 4 3 3 3 3 2 2 2 2 2 2 2 2 2 2 2 2 2 2 3 4 6 7 8 7 5 5 5 5 6 6 7 7 7
Wind_Direction
270 266 269 270 267 267 266 267 268 272 271 269 268 265 265 264 261 258 257 254 254 256 251 249 250 250 250 251 247 245 243 242 264 279 274 277 271 272 279 272 274 266 253
281 278 274 278 280 274 272 274 273 273 272 269 269 268 266 266 262 258 262 259 255 257 254 251 253 252 250 249 246 246 245 242 252 273 281 277 269 270 272 273 283 287 262
293 289 288 288 285 280 277 278 277 274 275 274 269 267 267 266 265 261 260 260 256 254 253 251 251 248 251 250 247 247 248 250 248 261 274 274 273 272 283 287 288 293 294
298 295 294 290 286 285 285 284 281 279 280 279 273 268 267 266 265 263 261 262 260 257 254 251 249 244 247 250 249 248 248 250 250 256 265 269 261 257 254 260 309 345 349
309 302 293 292 289 288 289 290 289 287 286 284 283 280 275 272 267 269 269 267 264 263 260 254 250 247 248 250 251 247 245 249 252 256 259 264 254 240 244 229 263 1 15
303 295 297 299 297 293 292 293 295 293 290 288 285 283 281 279 284 284 283 274 270 263 262 259 254 251 252 255 257 255 249 246 247 250 255 251 247 234 222 217 170 121 335
299 297 299 300 299 295 294 297 293 292 291 291 289 285 282 282 287 289 288 284 272 262 256 255 257 252 254 249 256 260 257 253 248 244 243 245 231 211 193 212 197 199 272
301 300 303 304 301 300 301 297 294 293 292 291 290 288 287 288 291 294 296 288 279 268 254 246 246 249 245 245 249 256 255 252 246 237 231 232 223 200 194 192 156 99 54
302 302 304 304 303 303 302 299 298 298 297 293 291 288 288 290 293 297 298 286 278 276 262 250 246 245 248 250 250 250 253 263 262 235 221 208 201 197 181 145 146 136 98
301 302 302 301 299 297 295 297 297 296 293 296 295 292 286 287 292 298 300 285 281 279 272 257 252 251 251 252 238 222 226 236 192 129 119 132 160 163 187 181 169 158 151
303 305 305 302 299 292 293 296 297 297 298 298 297 294 289 286 295 300 302 296 276 276 276 272 260 259 260 257 243 211 207 211 171 143 129 116 106 103 95 84 128 158 169
307 307 305 304 302 303 298 299 298 297 299 300 300 300 296 292 298 303 307 307 302 287 281 278 270 270 273 258 239 178 182 181 140 127 119 117 116 104 79 71 72 67 70
308 306 303 304 301 298 293 296 298 296 296 298 298 298 301 301 300 306 310 314 315 309 298 290 288 290 296 264 144 155 157 142 135 131 134 136 127 122 104 86 74 72 61
306 306 305 304 304 303 295 290 291 293 294 294 296 297 299 300 299 301 305 309 313 313 311 313 315 339 41 95 103 108 119 134 138 139 134 122 112 108 101 108 106 94 74
304 304 305 302 298 300 298 292 291 281 282 290 290 289 294 296 297 302 304 303 297 289 321 9 35 40 67 77 80 89 100 112 113 126 129 123 115 105 99 99 104 94 96
305 306 303 303 303 303 306 310 307 303 307 307 305 300 297 296 304 308 313 316 315 325 346 62 60 56 71 98 107 101 101 109 112 119 125 127 123 118 108 93 96 104 105
295 299 300 301 302 306 307 308 312 318 317 318 319 318 315 310 309 313 320 328 331 342 19 65 74 86 86 89 110 111 109 111 115 120 122 124 124 121 117 110 106 103 102
297 298 300 295 297 299 300 301 304 310 317 321 324 327 330 329 326 328 330 340 8 16 41 72 74 83 96 99 109 112 108 112 114 118 118 121 127 125 119 117 111 111 110
301 298 297 296 296 298 300 302 305 307 309 314 321 327 336 337 341 347 346 6 22 21 26 52 84 100 109 111 112 114 116 118 120 119 118 122 124 122 119 117 115 114 109
302 306 309 304 304 308 308 308 309 310 313 317 322 326 333 338 352 356 1 10 17 27 32 40 69 95 109 118 118 116 116 114 118 118 121 121 120 121 122 123 122 119 111
302 304 310 310 310 309 308 308 309 311 313 316 319 329 335 335 344 350 354 359 3 6 26 37 76 124 126 123 123 122 125 121 118 120 118 118 119 117 117 118 118 115 112
300 300 302 305 309 311 310 306 306 308 312 315 322 331 339 344 349 351 355 356 356 355 11 24 18 87 111 128 136 135 126 125 121 118 117 117 116 115 112 114 116 114 114
299 302 305 308 308 312 315 316 316 316 316 318 320 325 335 346 349 349 351 350 347 350 7 16 55 86 83 83 100 136 138 143 138 134 127 125 121 119 119 121 122 121 119
305 304 306 310 310 310 312 315 316 317 318 319 319 325 335 340 345 346 350 348 346 349 359 16 70 92 89 76 73 74 98 118 123 126 128 129 125 124 121 120 119 121 122
304 304 306 307 308 311 314 316 319 321 324 327 328 329 335 340 344 345 347 346 345 352 6 20 62 76 79 75 78 96 106 109 114 117 119 121 123 122 122 122 121 119 117
305 305 304 304 306 309 311 312 315 320 323 325 331 338 340 339 340 340 341 347 349 354 4 27 60 72 69 76 91 100 105 109 113 114 116 118 120 120 121 120 121 120 120